Home > Weather > Niagara Falls > Past weeks

Flag for Canada Past Weather in Niagara Falls, Ontario, Canada — Yesterday and Last 2 Weeks

Now
70 °F

Mostly cloudy.


Feels Like: 75 °F
Forecast: 62 / 72 °F
Wind: 20 mph from Southwest

Location: Niagara Falls International Airport

Current Time: Jul 1, 2016 at 2:57:29 PM

Latest Report: Jul 1, 2016 at 1:59 PM


Visibility: 10 mi

Pressure: 29.83 "Hg

Humidity: 66%

Dew Point: 58 °F

Location of Niagara FallsLocation

Past Weather in Niagara Falls — Graph

°F

Niagara Falls Temperature Yesterday

Maximum temperature yesterday: 81 °F (at 4:53 PM)
Minimum temperature yesterday: 56 °F (at 4:53 AM)
Average temperature yesterday: 69 °F

High & Low Weather Summary for the Past Weeks

 TemperatureHumidityPressure
High91 °F (Jun 26, 1:53 PM)88% (Jun 27, 3:53 AM)30.29 "Hg (Jun 27, 3:53 AM)
Low52 °F (Jun 24, 5:53 AM)18% (Jun 17, 3:53 PM)29.67 "Hg (Jun 16, 2:53 PM)
Average73 °F51%29.98 "Hg
* Reported Jun 16 1:53 PM — Jul 1 1:59 PM, Niagara Falls, Weather by CustomWeather, © 2016

Note: Actual official high and low records may vary slightly from our data, if they occured in-between our weather recording intervals... More about our weather records

Advertising

Niagara Falls Weather History for the Previous 24 Hours

Scroll right to see more
 ConditionsComfort  
Time TempWeatherWind HumidityBarometerVisibility
1:59 PM
Fri, Jul 1
70 °FMostly cloudy.20 mph66%29.83 "Hg10 mi
12:53 PM72 °FPartly sunny.16 mph64%29.84 "Hg10 mi
11:53 AM69 °FBroken clouds.10 mph73%29.85 "Hg10 mi
10:58 AM69 °FLight rain. Mostly cloudy.13 mph66%29.87 "Hg10 mi
9:53 AM73 °FCloudy.10 mph50%29.86 "Hg10 mi
8:53 AM73 °FBroken clouds.13 mph50%29.85 "Hg10 mi
7:53 AM69 °FBroken clouds.7 mph55%29.85 "Hg10 mi
7:02 AM63 °FCloudy.3 mph65%29.88 "Hg10 mi
6:53 AM62 °FPassing clouds.3 mph65%29.87 "Hg10 mi
5:53 AM61 °FClear.No wind65%29.88 "Hg10 mi
4:53 AM60 °FClear.3 mph67%29.89 "Hg10 mi
3:53 AM58 °FPassing clouds.No wind70%29.90 "Hg10 mi
2:53 AM60 °FClear.3 mph65%29.91 "Hg10 mi
1:53 AM63 °FClear.No wind65%29.93 "Hg10 mi
12:53 AM61 °FClear.No wind62%29.94 "Hg10 mi
11:53 PM
Thu, Jun 30
65 °FClear.No wind54%29.95 "Hg10 mi
10:53 PM66 °FClear.No wind50%29.96 "Hg10 mi
9:53 PM68 °FPassing clouds.5 mph44%29.97 "Hg10 mi
8:53 PM71 °FPassing clouds.6 mph36%29.98 "Hg10 mi
7:53 PM76 °FPassing clouds.9 mph31%29.98 "Hg10 mi
6:53 PM78 °FPassing clouds.12 mph30%29.97 "Hg10 mi
5:53 PM79 °FScattered clouds.12 mph29%29.97 "Hg10 mi
4:53 PM81 °FPartly sunny.10 mph32%29.98 "Hg10 mi
3:53 PM80 °FPartly sunny.15 mph31%29.99 "Hg10 mi
2:53 PM79 °FPartly sunny.2 mph32%29.99 "Hg10 mi
Weather by CustomWeather, © 2016

See weather overviewHow to use our weather pages